Regional Weather Roundup
Issued by NWS Grand Forks, ND

Home | Current Version | Previous Version | Graphics & Text | Print | Product List | Glossary On
Versions: 1 2 3 4 5 6 7 8 9 10 11 12 13 14 15 16 17 18 19 20 21 22 23 24 25 26 27 28 29 30 31 32 33 34 35 36 37 38 39 40 41 42 43 44 45 46 47 48 49 50
000
ASUS43 KFGF 231910
RWRFGF
PRAIRIE TO PINES  WEATHER ROUNDUP
NATIONAL WEATHER SERVICE EASTERN NORTH DAKOTA/GRAND FORKS ND
200 PM CDT SAT SEP 23 2017

 **SATELLITE DATA USED TO AUGMENT SKY COVER AT AUTOMATED STATIONS**
 *****  WEATHER ACROSS EASTERN NORTH DAKOTA  *****

CITY           SKY/WX    TMP DP  RH WIND       PRES   REMARKS
GRAND FORKS    PTSUNNY   60  50  69 N12       30.06S
GRAND FRKS AFB CLOUDY    60  48  64 N12       30.06R
DEVILS LAKE    CLOUDY    55  45  68 N10       30.09R
FARGO          CLOUDY    58  50  75 N8        30.04F
WAHPETON ARPT  CLOUDY    54  50  87 NW5       30.04R
$$

 ***** WEATHER ACROSS CENTRAL AND WESTERN NORTH DAKOTA  *****

CITY           SKY/WX    TMP DP  RH WIND       PRES   REMARKS
BISMARCK       FAIR      56  46  69 N10       30.07F
MINOT          CLOUDY    55  43  63 NW9       30.11F
JAMESTOWN      CLOUDY    58  47  66 NE12      30.05F
MINOT AFB      CLOUDY    54  41  62 N7        30.10S
GARRISON         N/A     51  42  71 N5        30.10F
WILLISTON      CLOUDY    51  38  60 CALM      30.17R
DICKINSON      CLOUDY    48  43  82 N5        30.10F
HETTINGER      CLOUDY    45  42  89 N9        30.09F
$$

 *****  OTHER AIRPORT OBSERVATIONS IN OUR AREA  *****

CITY           SKY/WX    TMP DP  RH WIND       PRES   REMARKS
WALHALLA       FAIR     N/A N/A N/A N10G20    30.07S
GRAFTON AIRPOR CLOUDY    59  48  67 N14       30.08S
VALLEY CITY AR CLOUDY    57  50  77 N10       30.06F
CANDO          CLOUDY    55  45  67 N9        30.10F
CAVALIER APRT  MOCLDY    59  48  67 N13       30.06F
GWINNER        CLOUDY    55  50  82 NE6       30.04R
SHEYENNE NWR     N/A     57  51  80 NE9       29.95S
ROLLA          CLOUDY    52  45  76 N10       30.10F
 ***** THE ABOVE OBSERVATIONS ARE NON NWS ARE NOT QUALITY
       CONTROLLED AND MAY MIS-REPORT RAIN FOR SNOW...
$$

  *****  WEATHER ACROSS NORTHERN MINNESOTA  *****

CITY           SKY/WX    TMP DP  RH WIND       PRES   REMARKS
FLAG ISLAND    CLOUDY    54  52  94 NW10      30.01R
WARROAD        CLOUDY    55  52  88 NW9       30.04R
ROSEAU         CLOUDY    55  52  88 NW9       30.04R
HALLOCK          N/A     61  50  67 N14G22    30.04S
THF RVR FALLS  CLOUDY    55  50  83 N6        30.06S
BAUDETTE       CLOUDY    55  53  93 W9        30.04R
WASKISH        CLOUDY    57  54  88 W7        30.03R
CROOKSTON      CLOUDY    55  50  82 N9        30.05S
STEPHEN NDAWN    N/A     61  50  67 N14         N/A
GREENBUSH NDAW   N/A     59  50  72 N8          N/A
$$
  *****  WEATHER ACROSS CENTRAL AND WEST MINNESOTA  *****

CITY           SKY/WX    TMP DP  RH WIND       PRES   REMARKS
FOSSTON        CLOUDY    54  50  87 N8        30.04F
BEMIDJI        CLOUDY    54  52  93 W7        30.05R
PARK RAPIDS    LGT RAIN  57  54  89 N6        30.01F
ELBOW LAKE     CLOUDY    54  54 100 CALM      30.00F
WADENA         LGT RAIN  55  55 100 CALM      30.03S
DETROIT LAKES  CLOUDY    52  52 100 N5        30.03F
MOORHEAD       CLOUDY    57  48  72 N13       30.04R
FERGUS FALLS   LGT RAIN  54  54 100 N9        29.99F
MORRIS MN      NOT AVBL
STAPLES        CLOUDY    61  55  82 NW10      30.03R
$$
  *****  WEATHER ELSEWHERE ACROSS MINNESOTA  *****

CITY           SKY/WX    TMP DP  RH WIND       PRES   REMARKS
DULUTH         FAIR      82  71  69 SW10      29.95F
INTRNTL FALLS  CLOUDY    58  54  86 VRB5      30.00R
ELY            CLOUDY    66  63  88 W8        29.99S
CLOQUET        FAIR      82  66  57 S7        29.96S
WHEATON        LGT RAIN  54  50  87 NW7       30.05R
BRAINERD       FAIR      68  61  78 W8        30.01R
HIBBING        CLOUDY    68  63  84 NW9       29.99R
ALEXANDRIA     LGT RAIN  60  58  92 CALM      30.03S
SAINT CLOUD    CLOUDY    79  70  74 SW7       29.95S
MINNEAPOLIS    PTSUNNY   86  71  60 S9        29.95F HX  91
$$

  *****  WEATHER ACROSS SOUTH DAKOTA  *****

CITY           SKY/WX    TMP DP  RH WIND       PRES   REMARKS
SIOUX FALLS    CLOUDY    74  68  81 SE6       29.95S
BROOKINGS      LGT RAIN  57  57 100 VRB3      29.97F
WATERTOWN      LGT RAIN  55  55 100 E10       29.95R FOG
HURON          CLOUDY    55  54  96 N16       29.95F
SISSETON         N/A     54  52  93 N12       30.00R
ABERDEEN       CLOUDY    53  51  93 N10       30.04R
MITCHELL       TSTM      58  57  97 NW6       29.96S
PIERRE         CLOUDY    51  48  89 NE13      30.00F
MOBRIDGE       CLOUDY    57  47  69 N13       30.02R
RAPID CITY     LGT RAIN  46  43  87 N12       30.06F FOG
$$

  *****  SOME WEATHER IN NEARBY STATES *****

CITY           SKY/WX    TMP DP  RH WIND       PRES   REMARKS
GLASGOW MT     CLOUDY    50  36  58 SE7       30.13F
GREAT FALLS MT FAIR      49  33  54 SW10      30.07F
CHEYENNE WY    CLOUDY    48  39  71 NE8       30.00F
SCOTTSBLUFF NE CLOUDY    46  42  86 NE3       30.03R
OMAHA NE       PTSUNNY   90  66  45 S24       29.93F HX  92
DES MOINES IA  FAIR      91  65  41 S16G22    29.98F HX  93
DAVENPORT IA   FAIR      91  64  40 SW8       30.06F HX  92
CHICAGO IL     FAIR      92  61  35 SE6       30.06F HX  92
EAU CLAIRE WI  FAIR      88  68  51 S13G22    29.98F HX  91
LA CROSSE WI   FAIR      91  67  44 S13       29.99F HX  94
$$

  *****  SOME NATIONAL WEATHER *****

CITY           SKY/WX    TMP DP  RH WIND       PRES   REMARKS
LA GUARDIA NY  FAIR      85  51  31 N14       30.00F
RALEIGH NC     FAIR      86  55  34 NE12G20   30.06F
ATLANTA GA     FAIR      85  63  47 E8        30.05F
NEW ORLEANS LA FAIR      89  70  53 NE13G21   29.93F HX  94
OKLAHOMA CITY  PTSUNNY   87  65  47 S12G22    29.95F
ALBUQUERQUE NM FAIR      79  42  26 S26G32    29.85F
SALT LAKE CITY PTSUNNY   54  37  52 NW12      29.94F
LOS ANGELES CA FAIR      70  56  61 SW12      29.86S
BOISE ID       FAIR      53  39  59 NW7       30.06F
SEATTLE WA     PTSUNNY   61  50  67 SW8       30.12R
$$

*** WEATHER ACROSS MANITOBA...SASKATCHEWAN AND ONTARIO ***
                ***ONTARIO***

CITY           SKY/WX    TMP DP  RH WIND       PRES   REMARKS
GERALDTON      MOSUNNY   79  70  73 SW12G18   29.88R
THUNDER BAY    PTSUNNY   82  66  57 NW15G21   29.90R
SIOUX LOOKOUT  CLOUDY    59  55  88 NW6       29.95R
TORONTO        MOSUNNY   91  63  38 NW7       30.09F HX  92
BIG TROUT LK   LGT RAIN  48  48 100 N9        29.99F FOG
PICKLE LAKE    CLOUDY    57  55  94 N5        29.91R FOG
DRYDEN         CLOUDY    57  55  94 W8        29.96R
KENORA         DRIZZLE   54  54 100 NW8       29.99R FOG
$$
                *** MANITOBA***

CITY           SKY/WX    TMP DP  RH WIND       PRES   REMARKS
BRANDON        PTSUNNY   54  43  66 N7        30.11F
DAUPHIN        CLOUDY    54  41  62 CALM      30.12S
ISLAND LAKE    NOT AVBL
PILOT MOUND      N/A     52  45  76 N10         N/A
THE PAS        DRIZZLE   46  45  93 NW3       30.14S FOG
THOMPSON       CLOUDY    43  37  81 NE6       30.18R
WINNIPEG       CLOUDY    57  48  72 N10       30.06F
LYNN LAKE      CLOUDY    41  37  87 E6        30.19S
CHURCHILL      CLOUDY    41  36  81 NE12      30.22R
GILLAM         CLOUDY    41  39  93 N10       30.17R FOG
$$
                ***SASKATCHEWAN***

CITY           SKY/WX    TMP DP  RH WIND       PRES   REMARKS
ESTEVAN        CLOUDY    50  34  53 VRB2      30.15S
KINDERSLEY     CLOUDY    48  37  66 SW7       30.10F
LLOYDMINSTER   PTSUNNY   48  37  66 S7        30.09F
PRINCE ALBERT  CLOUDY    50  39  66 VRB3      30.14F
REGINA         PTSUNNY   50  34  53 VRB7      30.15R
YORKTON        CLOUDY    48  39  71 W6        30.14S
N. BATTLEFORD  PTSUNNY   48  37  66 VRB2      30.13F
LA RONGE       DRIZZLE   46  43  87 SW3       30.14S
SASKATOON      PTSUNNY   50  39  66 SW5       30.14S
SWIFT CURRENT    N/A     50  34  53 SW7       30.10F
$$
NOTE: THESE ARE AUTOMATED STATIONS WITH LIMITED QUALITY CONTROL
      "FAIR" INDICATES FEW OR NO CLOUDS BELOW 12,000 FEET WITH NO
      SIGNIFICANT WEATHER AND/OR OBSTRUCTIONS TO VISIBILITY.
      SKY/WX - SKY CONDITION AND SIGNIFICANT WEATHER.
      TMP - AIR TEMPERATURE.    DP   - DEWPOINT TEMPERATURE.
      RH  - RELATIVE HUMIDITY.  PRES - PRESSURE.
      HX  - HEAT INDEX.         WCI  - WIND CHILL INDEX.
$




USA.gov is the U.S. government's official web portal to all federal, state and local government web resources and services.